Tunica, MS

8:59 PM CDT on April 19, 2018 (GMT -0500)
Tunica

Weather History for KUTA - February, 2013

Change the Weather History Date:

Thursday, February 28, 2013

  Actual Average (KAWM) Record (KAWM)
Temperature  
Mean Temperature 38 °F -  
Max Temperature 44 °F 59 °F 76 °F (1980)
Min Temperature 32 °F 38 °F 26 °F (1985)
Degree Days  
Heating Degree Days 26    
Moisture  
Dew Point 31 °F    
Average Humidity 75    
Maximum Humidity 93    
Minimum Humidity 61    
Precipitation  
Precipitation 0.00 in - - ()
Sea Level Pressure  
Sea Level Pressure 30.09 in    
Wind  
Wind Speed 9 mph (NW)    
Max Wind Speed 15 mph    
Max Gust Speed 24 mph    
Visibility 10 miles    
Events      
Averages and records for this station are not official NWS values.
T = Trace of Precipitation, MM = Missing Value Source: NWS Daily Summary

Daily Weather History Graph

Daily Weather History Graph

Search for Another Location

Airport or City:

Astronomy

Feb. 28, 2013 Rise Set
Actual Time 6:31 AM CST 5:56 PM CST
Civil Twilight 6:06 AM CST 6:22 PM CST
Nautical Twilight 5:36 AM CST 6:51 PM CST
Astronomical Twilight 5:07 AM CST 7:20 PM CST
Moon 9:12 PM CST (2/28) 7:50 AM CST (2/28)
Length of Visible Light 12h 15m
Length of Day
11h 25m
Waning Gibbous, 90% of the Moon is Illuminated
Feb 28
Waning Gibbous
Mar 4
Last Quarter
Mar 11
New
Mar 19
First Quarter
Mar 27
Full

Hourly Weather History & Observations

Time (CST) Temp. Windchill Dew Point Humidity Pressure Visibility Wind Dir Wind Speed Gust Speed Precip Events Conditions
12:15 AM 39.2 °F 33.0 °F 32.0 °F 75% 30.02 in 10.0 mi WNW 9.2 mph - N/A   Overcast
12:35 AM 39.2 °F 33.6 °F 32.0 °F 75% 30.02 in 10.0 mi WNW 8.1 mph - N/A   Mostly Cloudy
12:55 AM 37.4 °F 32.1 °F 32.0 °F 81% 30.03 in 10.0 mi North 6.9 mph - N/A   Mostly Cloudy
1:15 AM 37.4 °F 29.3 °F 32.0 °F 81% 30.03 in 10.0 mi NW 12.7 mph - N/A   Scattered Clouds
1:35 AM 37.4 °F 30.8 °F 30.2 °F 75% 30.03 in 10.0 mi NW 9.2 mph - N/A   Clear
2:15 AM 35.6 °F 29.2 °F 30.2 °F 81% 30.03 in 10.0 mi WNW 8.1 mph - N/A   Clear
2:35 AM 35.6 °F 29.9 °F 30.2 °F 81% 30.03 in 10.0 mi WNW 6.9 mph - N/A   Clear
2:55 AM 35.6 °F 29.9 °F 30.2 °F 81% 30.03 in 10.0 mi West 6.9 mph - N/A   Clear
3:15 AM 35.6 °F 28.6 °F 30.2 °F 81% 30.03 in 10.0 mi West 9.2 mph - N/A   Clear
3:35 AM 35.6 °F 27.1 °F 28.4 °F 75% 30.02 in 10.0 mi WNW 12.7 mph - N/A   Clear
3:55 AM 35.6 °F 28.0 °F 28.4 °F 75% 30.03 in 10.0 mi WNW 10.4 mph - N/A   Clear
4:15 AM 33.8 °F 27.0 °F 30.2 °F 87% 30.03 in 10.0 mi WNW 8.1 mph - N/A   Clear
4:35 AM 33.8 °F 27.0 °F 30.2 °F 87% 30.04 in 10.0 mi WNW 8.1 mph - N/A   Mostly Cloudy
4:55 AM 35.6 °F 28.6 °F 28.4 °F 75% 30.04 in 10.0 mi WNW 9.2 mph - N/A   Mostly Cloudy
5:15 AM 33.8 °F 25.8 °F 28.4 °F 81% 30.04 in 10.0 mi West 10.4 mph - N/A   Clear
5:35 AM 33.8 °F 26.4 °F 28.4 °F 81% 30.05 in 10.0 mi West 9.2 mph - N/A   Clear
5:55 AM 33.8 °F 26.4 °F 28.4 °F 81% 30.05 in 10.0 mi West 9.2 mph - N/A   Clear
6:15 AM 33.8 °F 27.0 °F 28.4 °F 81% 30.06 in 10.0 mi West 8.1 mph - N/A   Clear
6:35 AM 33.8 °F 27.0 °F 30.2 °F 87% 30.07 in 10.0 mi West 8.1 mph - N/A   Mostly Cloudy
6:55 AM 33.8 °F 26.4 °F 30.2 °F 87% 30.07 in 10.0 mi West 9.2 mph - N/A   Mostly Cloudy
7:15 AM 33.8 °F 25.8 °F 30.2 °F 87% 30.08 in 10.0 mi West 10.4 mph - N/A   Scattered Clouds
7:35 AM 35.6 °F 28.6 °F 30.2 °F 81% 30.08 in 10.0 mi WNW 9.2 mph - N/A   Scattered Clouds
7:55 AM 35.6 °F 28.6 °F 30.2 °F 81% 30.10 in 10.0 mi WNW 9.2 mph - N/A   Scattered Clouds
8:15 AM 35.6 °F 28.0 °F 30.2 °F 81% 30.10 in 10.0 mi WNW 10.4 mph - N/A   Mostly Cloudy
8:35 AM 37.4 °F 28.5 °F 30.2 °F 75% 30.10 in 10.0 mi WNW 15.0 mph - N/A   Scattered Clouds
8:55 AM 39.2 °F 31.6 °F 30.2 °F 70% 30.10 in 10.0 mi NW 12.7 mph - N/A   Clear
9:15 AM 41.0 °F 33.1 °F 30.2 °F 65% 30.10 in 10.0 mi NW 15.0 mph 19.6 mph N/A   Clear
9:35 AM 41.0 °F 33.1 °F 30.2 °F 65% 30.10 in 10.0 mi NW 15.0 mph 24.2 mph N/A   Scattered Clouds
9:55 AM 41.0 °F 33.9 °F 30.2 °F 65% 30.11 in 10.0 mi NNW 12.7 mph - N/A   Mostly Cloudy
10:15 AM 41.0 °F 33.5 °F 30.2 °F 65% 30.10 in 10.0 mi NNW 13.8 mph - N/A   Mostly Cloudy
10:35 AM 42.8 °F 37.0 °F 30.2 °F 61% 30.11 in 10.0 mi North 10.4 mph 17.3 mph N/A   Mostly Cloudy
10:55 AM 41.0 °F 34.3 °F 30.2 °F 65% 30.11 in 10.0 mi North 11.5 mph - N/A   Overcast
11:15 AM 42.8 °F 36.6 °F 32.0 °F 66% 30.12 in 10.0 mi NW 11.5 mph - N/A   Overcast
11:35 AM 42.8 °F 36.6 °F 30.2 °F 61% 30.12 in 10.0 mi North 11.5 mph - N/A   Overcast
11:55 AM 42.8 °F 36.2 °F 32.0 °F 66% 30.11 in 10.0 mi NNW 12.7 mph - N/A   Overcast
12:35 PM 42.8 °F 36.2 °F 30.2 °F 61% 30.11 in 10.0 mi NNW 12.7 mph - N/A   Overcast
12:55 PM 42.8 °F 37.0 °F 30.2 °F 61% 30.11 in 10.0 mi North 10.4 mph - N/A   Overcast
1:15 PM 42.8 °F 37.5 °F 32.0 °F 66% 30.11 in 10.0 mi NNW 9.2 mph - N/A   Mostly Cloudy
1:35 PM 44.6 °F 39.2 °F 32.0 °F 61% 30.10 in 10.0 mi North 10.4 mph - N/A   Overcast
1:55 PM 42.8 °F 38.0 °F 32.0 °F 66% 30.10 in 10.0 mi North 8.1 mph - N/A   Overcast
2:15 PM 44.6 °F 39.2 °F 32.0 °F 61% 30.10 in 10.0 mi NNW 10.4 mph - N/A   Overcast
2:35 PM 44.6 °F 39.7 °F 32.0 °F 61% 30.11 in 10.0 mi NNW 9.2 mph - N/A   Overcast
2:55 PM 44.6 °F 40.2 °F 32.0 °F 61% 30.11 in 10.0 mi NW 8.1 mph - N/A   Mostly Cloudy
3:15 PM 44.6 °F 39.7 °F 32.0 °F 61% 30.11 in 10.0 mi NW 9.2 mph - N/A   Overcast
3:35 PM 44.6 °F 39.2 °F 32.0 °F 61% 30.11 in 10.0 mi NW 10.4 mph 16.1 mph N/A   Overcast
3:55 PM 44.6 °F 38.8 °F 32.0 °F 61% 30.11 in 10.0 mi NNW 11.5 mph - N/A   Overcast
4:15 PM 42.8 °F 37.5 °F 32.0 °F 66% 30.10 in 10.0 mi NNW 9.2 mph - N/A   Overcast
4:35 PM 42.8 °F 37.5 °F 32.0 °F 66% 30.10 in 10.0 mi NNW 9.2 mph - N/A   Overcast
4:55 PM 42.8 °F 38.6 °F 32.0 °F 66% 30.11 in 10.0 mi North 6.9 mph - N/A   Mostly Cloudy
5:15 PM 42.8 °F 40.1 °F 32.0 °F 66% 30.11 in 10.0 mi North 4.6 mph - N/A   Overcast
5:35 PM 42.8 °F 40.1 °F 32.0 °F 66% 30.11 in 10.0 mi North 4.6 mph - N/A   Scattered Clouds
5:55 PM 41.0 °F 37.1 °F 32.0 °F 70% 30.11 in 10.0 mi North 5.8 mph - N/A   Clear
6:15 PM 37.4 °F 33.8 °F 32.0 °F 81% 30.12 in 10.0 mi North 4.6 mph - N/A   Clear
6:35 PM 37.4 °F 33.8 °F 32.0 °F 81% 30.12 in 10.0 mi North 4.6 mph - N/A   Clear
6:55 PM 37.4 °F 33.8 °F 32.0 °F 81% 30.12 in 10.0 mi North 4.6 mph - N/A   Clear
7:15 PM 37.4 °F 33.8 °F 32.0 °F 81% 30.12 in 10.0 mi North 4.6 mph - N/A   Clear
7:35 PM 37.4 °F - 32.0 °F 81% 30.12 in 10.0 mi Calm Calm - N/A   Clear
7:55 PM 37.4 °F - 32.0 °F 81% 30.12 in 10.0 mi Calm Calm - N/A   Clear
8:15 PM 35.6 °F - 32.0 °F 87% 30.12 in 10.0 mi Calm Calm - N/A   Clear
8:35 PM 35.6 °F 31.7 °F 32.0 °F 87% 30.13 in 10.0 mi NNW 4.6 mph - N/A   Clear
8:55 PM 33.8 °F 27.0 °F 32.0 °F 93% 30.13 in 10.0 mi North 8.1 mph - N/A   Clear
9:15 PM 35.6 °F 28.6 °F 32.0 °F 87% 30.14 in 10.0 mi North 9.2 mph - N/A   Clear
9:35 PM 35.6 °F 28.0 °F 32.0 °F 87% 30.14 in 10.0 mi North 10.4 mph - N/A   Clear
9:55 PM 35.6 °F 28.0 °F 32.0 °F 87% 30.15 in 10.0 mi North 10.4 mph - N/A   Clear
10:15 PM 35.6 °F 28.6 °F 32.0 °F 87% 30.15 in 10.0 mi North 9.2 mph - N/A   Clear
10:35 PM 33.8 °F 26.4 °F 30.2 °F 87% 30.14 in 10.0 mi NNW 9.2 mph - N/A   Clear
10:55 PM 33.8 °F 27.7 °F 30.2 °F 87% 30.14 in 10.0 mi NNW 6.9 mph - N/A   Clear
11:15 PM 33.8 °F 27.7 °F 30.2 °F 87% 30.13 in 10.0 mi NNW 6.9 mph - N/A   Clear
11:35 PM 33.8 °F 27.7 °F 30.2 °F 87% 30.13 in 10.0 mi NNW 6.9 mph - N/A   Clear
11:55 PM 32.0 °F 26.4 °F 28.4 °F 87% 30.13 in 10.0 mi NNW 5.8 mph - N/A   Clear